Back to catalog

GAOFEN 11-05

AliveScienceSSO
NORAD 60249·PAYLOAD·🇨🇳 China

Launched Jul 19, 2024 from Taiyuan Satellite Launch Center

Loading…

Next Passes (next 24 hours)

TLE

FreshSource: Space-Track

Epoch: Sep 14, 2026, 15:16 UTC

1 60249U 24130A   26257.63621606  .00004172  00000-0  17777-3 0  9999
2 60249  97.3935 334.6863 0002862  78.5054 281.6504 15.23498942 99088

Track GAOFEN 11-05 in real time with AllMySat

Download on the App Store